Merced, CA

2:08 PM PST on February 08, 2016 (GMT -0800)
Castle

Weather History for KMER - October, 2013

Change the Weather History Date:

Thursday, October 17, 2013

  Actual Average (KMCE) Record (KMCE)
Temperature  
Mean Temperature 63 °F 63 °F  
Max Temperature 84 °F 78 °F 92 °F (2008)
Min Temperature 42 °F 48 °F 39 °F (1951)
Degree Days  
Heating Degree Days 2    
Month to date heating degree days  
Since 1 July heating degree days  
Cooling Degree Days 0    
Month to date cooling degree days  
Year to date cooling degree days  
Growing Degree Days 13 (Base 50)    
Moisture  
Dew Point 40 °F    
Average Humidity 59    
Maximum Humidity 100    
Minimum Humidity 16    
Precipitation  
Precipitation 0.00 in 0.03 in 0.53 in (2004)
Month to date precipitation 0.26  
Year to date precipitation 9.25  
Snow  
Snow 0.00 in - - ()
Month to date snowfall  
Since 1 July snowfall  
Since 1 September snowfall  
Snow Depth -    
Sea Level Pressure  
Sea Level Pressure 30.02 in    
Wind  
Wind Speed 4 mph (NNW)    
Max Wind Speed 16 mph    
Max Gust Speed -    
Visibility 9 miles    
Events      
T = Trace of Precipitation, MM = Missing Value Source: NWS Daily Summary

Daily Weather History Graph

Daily Weather History Graph

Search for Another Location

Airport or City:

Trip Planner

Search our weather history database for the weather conditions in past years. The results will help you decide how hot, cold, wet, or windy it might be!

Date:

Astronomy

Oct. 17, 2013 Rise Set
Actual Time 7:12 AM PDT 6:22 PM PDT
Civil Twilight 6:46 AM PDT 6:48 PM PDT
Nautical Twilight 6:15 AM PDT 7:18 PM PDT
Astronomical Twilight 5:45 AM PDT 7:48 PM PDT
Moon 5:38 PM PDT (10/17) 5:51 AM PDT (10/17)
Length of Visible Light 12h 02m
Length of Day
11h 09m
Waxing Gibbous, 98% of the Moon is Illuminated
Oct 17
Waxing Gibbous
Oct 18
Full
Oct 26
Last Quarter
Nov 3
New
Nov 9
First Quarter

Hourly Weather History & Observations

Time (PDT) Temp. Dew Point Humidity Pressure Visibility Wind Dir Wind Speed Gust Speed Precip Events Conditions
12:15 AM 57.2 °F 44.6 °F 63% 30.04 in 10.0 mi NNW 5.8 mph - N/A   Clear
12:35 AM 57.2 °F 44.6 °F 63% 30.04 in 8.0 mi NNW 4.6 mph - N/A   Clear
12:55 AM 55.4 °F 42.8 °F 63% 30.04 in 10.0 mi North - - N/A   Clear
1:15 AM 53.6 °F 44.6 °F 72% 30.04 in 9.0 mi NNW 4.6 mph - N/A   Clear
1:35 AM 55.4 °F 44.6 °F 67% 30.04 in 7.0 mi NNW 4.6 mph - N/A   Clear
1:55 AM 53.6 °F 42.8 °F 67% 30.05 in 7.0 mi NNW 4.6 mph - N/A   Clear
2:15 AM 51.8 °F 42.8 °F 71% 30.04 in 9.0 mi North 3.5 mph - N/A   Clear
2:35 AM 51.8 °F 44.6 °F 76% 30.04 in 9.0 mi North - - N/A   Clear
2:55 AM 51.8 °F 44.6 °F 76% 30.04 in 10.0 mi NNE 3.5 mph - N/A   Clear
3:15 AM 48.2 °F 42.8 °F 82% 30.04 in 10.0 mi Calm Calm - N/A   Clear
3:35 AM 50.0 °F 44.6 °F 82% 30.04 in 9.0 mi NNW 3.5 mph - N/A   Clear
3:55 AM 51.8 °F 44.6 °F 76% 30.03 in 10.0 mi NNW 3.5 mph - N/A   Clear
4:15 AM 50.0 °F 44.6 °F 82% 30.03 in 10.0 mi North 3.5 mph - N/A   Clear
4:35 AM 46.4 °F 42.8 °F 87% 30.03 in 10.0 mi North - - N/A   Clear
4:55 AM 48.2 °F 42.8 °F 82% 30.04 in 10.0 mi Calm Calm - N/A   Clear
5:15 AM 48.2 °F 44.6 °F 87% 30.04 in 5.0 mi Calm Calm - N/A   Clear
5:35 AM 48.2 °F 42.8 °F 82% 30.04 in 10.0 mi North - - N/A   Clear
5:55 AM 44.6 °F 41.0 °F 87% 30.04 in 10.0 mi Calm Calm - N/A   Clear
6:15 AM 46.4 °F 42.8 °F 87% 30.05 in 10.0 mi Calm Calm - N/A   Clear
6:35 AM 46.4 °F 42.8 °F 87% 30.05 in 10.0 mi Calm Calm - N/A   Clear
6:45 AM 44.6 °F 39.2 °F 81% 30.05 in 10.0 mi Calm Calm - N/A   Clear
6:55 AM 42.8 °F 42.8 °F 100% 30.05 in 10.0 mi Calm Calm - N/A   Clear
8:45 AM 55.4 °F 42.8 °F 63% 30.08 in 10.0 mi Calm Calm - N/A   Clear
9:45 AM 62.6 °F 37.4 °F 39% 30.08 in 10.0 mi Calm Calm - N/A   Clear
10:45 AM 69.8 °F 33.8 °F 27% 30.07 in 10.0 mi Calm Calm - N/A   Clear
11:45 AM 75.2 °F 37.4 °F 25% 30.06 in 7.0 mi North 5.8 mph - N/A   Clear
12:45 PM 80.6 °F 37.4 °F 21% 30.03 in 7.0 mi NW 9.2 mph - N/A   Clear
1:45 PM 82.4 °F 35.6 °F 19% 30.00 in 7.0 mi NW 9.2 mph - N/A   Clear
2:45 PM 82.4 °F 35.6 °F 19% 29.98 in 7.0 mi NNW 8.1 mph - N/A   Clear
3:45 PM 84.2 °F 33.8 °F 16% 29.96 in 7.0 mi North 11.5 mph - N/A   Clear
4:45 PM 82.4 °F 33.8 °F 17% 29.95 in 7.0 mi NNW 16.1 mph - N/A   Clear
5:45 PM 78.8 °F 33.8 °F 20% 29.95 in 10.0 mi NNW 10.4 mph - N/A   Clear
6:45 PM 68.0 °F 35.6 °F 30% 29.95 in 10.0 mi NNW 6.9 mph - N/A   Clear
7:45 PM 64.4 °F 39.2 °F 40% 29.96 in 10.0 mi NNW 8.1 mph - N/A   Clear
8:45 PM 60.8 °F 41.0 °F 48% 29.96 in 10.0 mi NNW 6.9 mph - N/A   Clear
9:15 PM 60.8 °F 37.4 °F 42% 29.96 in 10.0 mi Calm Calm - N/A   Clear
9:35 PM 57.2 °F 37.4 °F 48% 29.97 in 10.0 mi WNW 3.5 mph - N/A   Clear
9:55 PM 55.4 °F 37.4 °F 51% 29.97 in 10.0 mi Calm Calm - N/A   Clear
10:15 PM 53.6 °F 39.2 °F 58% 29.97 in 10.0 mi Calm Calm - N/A   Clear
10:35 PM 53.6 °F 39.2 °F 58% 29.97 in 10.0 mi Calm Calm - N/A   Clear
10:55 PM 51.8 °F 37.4 °F 58% 29.97 in 10.0 mi Calm Calm - N/A   Clear
11:15 PM 51.8 °F 39.2 °F 62% 29.97 in 10.0 mi Calm Calm - N/A   Clear
11:35 PM 53.6 °F 39.2 °F 58% 29.98 in 10.0 mi Calm Calm - N/A   Clear
11:55 PM 51.8 °F 39.2 °F 62% 29.98 in 10.0 mi Calm Calm - N/A   Clear